Regional Weather Roundup
Issued by NWS Sioux Falls, SD

Home | Current Version | Previous Version | Graphics & Text | Print | Product List | Glossary On
Versions: 1 2 3 4 5 6 7 8 9 10 11 12 13 14 15 16 17 18 19 20 21 22 23 24 25 26 27 28 29 30 31 32 33 34 35 36 37 38 39 40 41 42 43 44 45 46 47 48 49 50
000
ASUS43 KFSD 052210
RWRFSD

WEATHER ROUNDUP FOR SE SOUTH DAKOTA/SW MINNESOTA/NW IOWA
NATIONAL WEATHER SERVICE SIOUX FALLS SD
500 PM CDT SUN JUL 05 2015

NOTE: "FAIR" INDICATES FEW OR NO CLOUDS BELOW 12,000 FEET WITH NO
SIGNIFICANT WEATHER AND OR OBSTRUCTIONS TO VISIBILITY.


SDZ038>040-050-052>070-052300-
SOUTHEAST SOUTH DAKOTA

CITY           SKY/WX    TMP DP  RH WIND       PRES   REMARKS
BROOKINGS      PTSUNNY   86  72  62 SE16      29.81F
CHAMBERLAIN    PTSUNNY   88  71  57 E5        29.74F
HURON          CLOUDY    89  71  55 CALM      29.73F HX  95
MADISON        FAIR      86  72  62 S14       29.80F
MITCHELL       PTSUNNY   89  73  59 SE12      29.75F HX  97
SIOUX FALLS    PTSUNNY   85  71  63 S13       29.80F
WINNER         FAIR      95  67  39 SE8       29.73F HX  99
YANKTON        PTSUNNY   88  73  62 SE15      29.76S HX  96
$$

MNZ071-072-080-081-089-090-097-098-052300-
SOUTHWEST MINNESOTA

CITY           SKY/WX    TMP DP  RH WIND       PRES   REMARKS
FAIRMONT       MOSUNNY   84  68  58 S16G22    29.87S
JACKSON        PTSUNNY   88  70  55 S17G23    29.87S
LUVERNE        MOSUNNY   88  70  55 S13       29.83F
MARSHALL       MOSUNNY   86  66  51 S12       29.80S
MONTEVIDEO     PTSUNNY   90  70  51 SW13      29.79S HX  95
PIPESTONE      MOSUNNY   84  66  54 S12       29.83F
REDWOOD FALLS  MOSUNNY   90  69  50 S17G23    29.81S
TRACY          PTSUNNY   86  67  52 S13G18    29.82F
WINDOM         SUNNY     88  70  55 S17G23    29.85S
WORTHINGTON    MOSUNNY   88  72  58 S14G23    29.85S
$$

IAZ001>003-012>014-020>022-031-032-NEZ013-014-SDZ071-052300-
NORTHWEST IOWA

CITY           SKY/WX    TMP DP  RH WIND       PRES   REMARKS
CHEROKEE       MOSUNNY   86  73  64 S15G23    29.84S
DENISON        SUNNY     84  72  65 SE17G23   29.83F
ESTHERVILLE    MOSUNNY   85  71  63 S20       29.87S
LE MARS        MOSUNNY   88  73  62 SE14G22   29.82S HX  96
ORANGE CITY    MOSUNNY   86  72  62 S14G23    29.83F
SHELDON        MOSUNNY   86  73  66 S18G25    29.82F
SIOUX CITY     SUNNY     88  72  58 S15G21    29.80S
SPENCER        SUNNY     90  69  50 S16       29.86S
STORM LAKE     MOSUNNY   84  72  65 SE16G25   29.88R
$$

ABBREVIATIONS USED IN REMARKS
   TC - TEMPERATURE IN CELSIUS
  WCI - WIND CHILL INDEX
   HX - HEAT INDEX
  VSB - VISIBILITY



USA.gov is the U.S. government's official web portal to all federal, state and local government web resources and services.